060  
ASUS45 KGGW 200515  
RWRGGW  
HOURLY REGIONAL WEATHER ROUNDUP FOR NORTHEAST MONTANA  
NATIONAL WEATHER SERVICE GLASGOW MONTANA  
1100 PM MDT TUE OCT 19 2021  
 
NOTE: "FAIR" INDICATES FEW OR NO CLOUDS BELOW 12,000 FEET WITH NO  
SIGNIFICANT WEATHER AND/OR S TO VISISBILITY.  
 
NORTHEAST MONTANA  
 
 
CITY SKY/WX TMP DP RH WIND PRES REMARKS
 
GLASGOW CLEAR 34 21 59 E10 30.31R  
PLENTYWOOD N/A 67 52 58 SW6G14 N/A  
WOLF POINT CLEAR 30 21 69 E5 30.33S  
JORDAN N/A 26 22 84 W3 30.29S  
WINNETT N/A 27 27 100 SW1 N/A  
SIDNEY CLEAR 33 26 75 N7 30.31S  
GLENDIVE PTCLDY 31 27 85 NE7 30.30R  
MALTA N/A 31 18 58 E1 N/A  
SCOBEY N/A 25 12 58 E5 30.28R  
 
FORT PECK REPORTS  
 
 
CITY SKY/WX TMP DP RH WIND PRES REMARKS
 
FORT PECK N/A 34 22 61 NE12 N/A  
THE PINES N/A 38 23 55 E7 N/A  
 
SOUTHEAST MONTANA  
 
 
CITY SKY/WX TMP DP RH WIND PRES REMARKS
 
BILLINGS CLOUDY 38 32 79 E7 30.27F  
MILES CITY PTCLDY 33 29 85 NW3 30.28S  
BAKER MOCLDY 35 27 72 NE6 30.25S  
LIVINGSTON CLOUDY 37 33 85 E12 30.21R  
 
CENTRAL MONTANA  
 
 
CITY SKY/WX TMP DP RH WIND PRES REMARKS
 
HAVRE CLEAR 38 26 62 E14 30.22S  
LEWISTOWN CLEAR 33 29 85 E16 30.20F  
GREAT FALLS CLEAR 32 28 85 SE6 30.14S  
CUT BANK CLEAR 32 29 88 SE9 30.15F  
HELENA CLEAR 43 31 62 W7 30.12S  
BUTTE CLEAR 42 29 59 VRB3 30.13S  
BOZEMAN CLEAR 34 31 88 SE6 30.15R  
 
WESTERN MONTANA  
 
 
CITY SKY/WX TMP DP RH WIND PRES REMARKS
 
MISSOULA CLEAR 55 30 38 SE20 29.99S  
KALISPELL NOT AVBL  
 
NORTH DAKOTA  
 
 
CITY SKY/WX TMP DP RH WIND PRES REMARKS
 
WILLISTON CLEAR 31 23 72 NE8 30.31R  
DICKINSON CLOUDY 36 29 75 NE13 30.22S  
MINOT PTCLDY 35 28 75 N9 30.29S  
BISMARCK CLOUDY 41 32 70 N12 30.23R  
 
SOUTHERN SASKATCHEWAN  
 
 
CITY SKY/WX TMP DP RH WIND PRES REMARKS
 
REGINA CLEAR 30 21 69 E5 30.36S  
ESTEVAN CLEAR 21 18 86 NE7 30.34S  
SWIFT CURRENT CLEAR 27 18 69 SE12 30.28S  
 
 
 
CLICK HERE TO GO TO PREVIOUS BULLETINS.

The Nexlab MT Page Main Text Page